Location: Nicosia
(35.1670°N, 33.3670°E)
Time: 17:37:22
(UTC+03:00)

Envisat - Visible Passes

Search period start: 21 September 2023 00:00
Search period end: 01 October 2023 00:00
Orbit: 763 x 764 km, 98.2° (Epoch: 20 September)

Date Brightness Start Highest point End Pass type
(mag) Time Alt. Az. Time Alt. Az. Time Alt. Az.
21 Sep 5.2 03:23:32 10° NE 03:27:10 20° E 03:27:28 19° E visible
21 Sep 3.4 05:01:31 10° N 05:06:14 40° WNW 05:07:38 33° WSW visible
22 Sep 2.9 04:24:05 10° NNE 04:29:11 85° ESE 04:29:53 67° S visible
23 Sep 4.3 03:47:17 10° NNE 03:51:55 35° E 03:52:09 35° ESE visible
23 Sep 4.1 05:26:43 10° NNW 05:30:39 23° WNW 05:32:18 20° W visible
24 Sep 5.6 03:11:43 10° ENE 03:14:24 15° E 03:14:24 15° E visible
24 Sep 3.1 04:48:46 10° N 04:53:42 53° WNW 04:54:34 47° WSW visible
25 Sep 3.2 04:11:32 10° NNE 04:16:35 64° ESE 04:16:49 63° ESE visible
25 Sep 4.7 05:52:36 10° NW 05:54:58 13° WNW 05:56:59 11° W visible
26 Sep 4.8 03:35:01 10° NE 03:39:04 26° E 03:39:04 26° E visible
26 Sep 3.8 05:13:46 10° N 05:18:09 30° WNW 05:19:14 28° W visible
27 Sep 5.9 03:00:55 10° E 03:01:18 10° E 03:01:18 10° E visible
27 Sep 2.8 04:36:05 10° N 04:41:09 72° WNW 04:41:29 69° WSW visible
28 Sep 3.8 03:59:03 10° NNE 04:03:43 47° E 04:03:43 47° E visible
28 Sep 4.4 05:39:13 10° NNW 05:42:31 18° WNW 05:43:53 16° W visible
29 Sep 5.3 03:22:55 10° NE 03:25:59 19° E 03:25:59 19° E visible
29 Sep 3.4 05:00:56 10° N 05:05:38 40° WNW 05:06:08 39° W visible
30 Sep 2.9 04:23:28 10° NNE 04:28:22 82° NE 04:28:22 82° NE visible
